Location: Sternwarte auf dem Internationalen Platz Vogelsang IP
(50.5721°N, 6.4398°E)
Time: 12:03:24
(UTC+01:00)

ACS3 Solar Sail - Pass Details

Date: 18 November 2025
Orbit: 888 x 1003 km, 97.3° (Epoch: 07 December)

Event Time Altitude Azimuth Distance (km) Brightness Sun altitude
Rises 05:51:46 0° 4° (N) 3,561 4.7 -19.1°
Reaches altitude 10° 05:54:51 10° 347° (NNW) 2,634 3.9 -18.6°
Enters shadow 05:57:15 17° 324° (NW) 2,167 3.2 -18.2°
